| time (UTC) | temp F | wind direction | speed knots | gust knots | rain 1hr in | rain 24hr in | rain mn in | humidity % | barometer mb |
| 20260507071607 | 42 | 228 | 2.6 | 6.1 | 0.00 | 1.16 | 0.02 | 91 | 1002.8 |
| 20260507071039 | 42 | 220 | 0.9 | 5.2 | 0.00 | 1.16 | 0.02 | 91 | 1002.8 |
| 20260507070539 | 42 | 228 | 1.7 | 5.2 | 0.00 | 1.16 | 0.02 | 91 | 1002.5 |
| 20260507070049 | 42 | 224 | 1.7 | 4.3 | 0.00 | 1.16 | 0.02 | 91 | 1002.6 |
| 20260507065538 | 43 | 223 | 0.9 | 3.5 | 0.00 | 1.16 | 0.02 | 90 | 1002.4 |
| 20260507065038 | 43 | 248 | 0.9 | 4.3 | 0.00 | 1.16 | 0.02 | 89 | 1002.3 |
| 20260507064549 | 42 | 280 | 1.7 | 5.2 | 0.00 | 1.16 | 0.02 | 91 | 1002.3 |
| 20260507064038 | 42 | 261 | 1.7 | 5.2 | 0.00 | 1.16 | 0.02 | 91 | 1002.3 |
| 20260507063538 | 43 | 214 | 1.7 | 7.0 | 0.00 | 1.16 | 0.02 | 90 | 1002.4 |
| 20260507063047 | 43 | 260 | 1.7 | 8.7 | 0.00 | 1.16 | 0.02 | 91 | 1002.5 |
| 20260507062538 | 43 | 245 | 2.6 | 8.7 | 0.00 | 1.16 | 0.02 | 91 | 1002.3 |
| 20260507062038 | 43 | 272 | 5.2 | 9.6 | 0.00 | 1.16 | 0.02 | 90 | 1002.3 |
| 20260507061555 | 43 | 259 | 4.3 | 9.6 | 0.00 | 1.16 | 0.02 | 91 | 1002.4 |
| 20260507061038 | 43 | 236 | 5.2 | 9.6 | 0.00 | 1.16 | 0.02 | 91 | 1002.6 |
| 20260507060538 | 43 | 233 | 3.5 | 7.0 | 0.00 | 1.16 | 0.02 | 91 | 1002.3 |
| 20260507060050 | 43 | 239 | 3.5 | 6.1 | 0.00 | 1.16 | 0.02 | 92 | 1002.2 |
| 20260507055542 | 43 | 255 | 2.6 | 5.2 | 0.00 | 1.16 | 0.02 | 94 | 1002.2 |
| 20260507055039 | 43 | 248 | 2.6 | 5.2 | 0.00 | 1.16 | 0.02 | 93 | 1002.2 |
| 20260507054547 | 44 | 243 | 3.5 | 5.2 | 0.00 | 1.16 | 0.02 | 93 | 1001.8 |
| 20260507054038 | 44 | 224 | 2.6 | 7.8 | 0.00 | 1.16 | 0.02 | 93 | 1001.8 |
| 20260507053542 | 44 | 235 | 3.5 | 7.8 | 0.01 | 1.16 | 0.02 | 94 | 1002.0 |
| 20260507053115 | 44 | 262 | 2.6 | 7.0 | 0.01 | 1.16 | 0.02 | 94 | 1002.2 |
| 20260507052538 | 44 | 207 | 1.7 | 7.0 | 0.01 | 1.16 | 0.02 | 94 | 1002.1 |
| 20260507052038 | 44 | 278 | 2.6 | 10.4 | 0.01 | 1.16 | 0.02 | 94 | 1002.2 |
| 20260507051557 | 44 | 250 | 5.2 | 10.4 | 0.01 | 1.16 | 0.02 | 94 | 1002.2 |
| 20260507051038 | 44 | 259 | 3.5 | 9.6 | 0.01 | 1.16 | 0.02 | 93 | 1002.0 |
| 20260507050538 | 44 | 233 | 4.3 | 9.6 | 0.01 | 1.16 | 0.02 | 93 | 1002.0 |
| 20260507050048 | 44 | 252 | 3.5 | 7.8 | 0.02 | 1.16 | 0.02 | 94 | 1002.2 |
| 20260507045544 | 44 | 232 | 3.5 | 6.1 | 0.02 | 1.17 | 0.02 | 94 | 1002.1 |
| 20260507045039 | 44 | 241 | 1.7 | 4.3 | 0.03 | 1.17 | 0.02 | 94 | 1002.0 |
| 20260507044549 | 45 | 259 | 0.9 | 3.5 | 0.04 | 1.17 | 0.02 | 95 | 1001.9 |
| 20260507044038 | 45 | 229 | 0.9 | 3.5 | 0.06 | 1.17 | 0.02 | 94 | 1002.1 |
| 20260507043539 | 45 | 255 | 0.0 | 2.6 | 0.06 | 1.16 | 0.01 | 94 | 1002.1 |
| 20260507043050 | 45 | 269 | 0.9 | 4.3 | 0.06 | 1.16 | 0.01 | 95 | 1002.1 |
| 20260507042539 | 45 | 266 | 0.0 | 6.1 | 0.07 | 1.16 | 0.01 | 95 | 1002.1 |
| 20260507042038 | 45 | 236 | 0.9 | 8.7 | 0.08 | 1.16 | 0.01 | 95 | 1002.4 |
| 20260507041547 | 45 | 245 | 2.6 | 8.7 | 0.09 | 1.16 | 0.01 | 96 | 1002.5 |
| 20260507041035 | 45 | 240 | 4.3 | 8.7 | 0.10 | 1.16 | 0.01 | 97 | 1002.6 |
| 20260507040539 | 45 | 231 | 1.7 | 5.2 | 0.12 | 1.16 | 0.01 | 97 | 1002.5 |
| 20260507040049 | 45 | 261 | 0.9 | 6.1 | 0.13 | 1.16 | 0.00 | 97 | 1002.5 |
| 20260507035538 | 46 | 232 | 1.7 | 6.1 | 0.14 | 1.16 | 1.16 | 96 | 1002.4 |
| 20260507035038 | 46 | 253 | 4.3 | 7.0 | 0.14 | 1.15 | 1.15 | 97 | 1002.5 |
| 20260507034549 | 46 | 241 | 1.7 | 7.0 | 0.13 | 1.14 | 1.14 | 97 | 1002.7 |
| 20260507034038 | 46 | 234 | 4.3 | 7.8 | 0.12 | 1.12 | 1.12 | 97 | 1002.5 |
| 20260507033538 | 46 | 258 | 3.5 | 7.8 | 0.12 | 1.11 | 1.11 | 98 | 1002.3 |
| 20260507033051 | 47 | 287 | 4.3 | 8.7 | 0.13 | 1.11 | 1.11 | 97 | 1002.2 |
| 20260507032539 | 47 | 270 | 4.3 | 8.7 | 0.13 | 1.10 | 1.10 | 98 | 1002.1 |
| 20260507032038 | 47 | 278 | 4.3 | 9.6 | 0.13 | 1.09 | 1.09 | 98 | 1001.9 |
| 20260507031549 | 47 | 222 | 4.3 | 9.6 | 0.14 | 1.08 | 1.08 | 99 | 1001.9 |
| 20260507031043 | 47 | 226 | 4.3 | 12.2 | 0.13 | 1.05 | 1.05 | 99 | 1001.9 |
| 20260507030540 | 47 | 241 | 4.3 | 12.2 | 0.15 | 1.04 | 1.04 | 99 | 1001.8 |
| 20260507030049 | 47 | 238 | 7.0 | 12.2 | 0.14 | 1.02 | 1.02 | 100 | 1002.1 |
| 20260507025540 | 48 | 219 | 4.3 | 7.8 | 0.15 | 1.02 | 1.02 | 100 | 1001.9 |
| 20260507025042 | 49 | 205 | 0.0 | 6.1 | 0.14 | 1.01 | 1.01 | 100 | 1001.7 |
| 20260507024559 | 49 | 0 | 0.0 | 1.7 | 0.14 | 1.01 | 1.01 | 100 | 1001.6 |
| 20260507024040 | 49 | 0 | 0.0 | 1.7 | 0.15 | 1.00 | 1.00 | 100 | 1001.7 |
| 20260507023540 | 49 | 0 | 0.0 | 0.9 | 0.15 | 0.99 | 0.99 | 100 | 1001.6 |
| 20260507023055 | 49 | 0 | 0.0 | 0.9 | 0.14 | 0.98 | 0.98 | 100 | 1001.6 |
| 20260507022539 | 49 | 0 | 0.0 | 1.7 | 0.14 | 0.97 | 0.97 | 100 | 1001.8 |
| 20260507022040 | 49 | 94 | 0.0 | 1.7 | 0.13 | 0.96 | 0.96 | 100 | 1001.9 |
| 20260507021549 | 49 | 0 | 0.0 | 0.9 | 0.11 | 0.94 | 0.94 | 100 | 1002.0 |
| 20260507021041 | 49 | 0 | 0.0 | 0.9 | 0.10 | 0.92 | 0.92 | 100 | 1002.1 |
| 20260507020541 | 49 | 0 | 0.0 | 0.0 | 0.08 | 0.90 | 0.90 | 100 | 1001.9 |
| 20260507020047 | 49 | 0 | 0.0 | 0.0 | 0.06 | 0.88 | 0.88 | 100 | 1001.8 |
| 20260507015536 | 49 | 0 | 0.0 | 1.7 | 0.05 | 0.87 | 0.87 | 100 | 1001.6 |
| 20260507015041 | 49 | 0 | 0.0 | 1.7 | 0.05 | 0.87 | 0.87 | 100 | 1001.5 |
| 20260507014603 | 49 | 34 | 0.0 | 1.7 | 0.05 | 0.86 | 0.86 | 100 | 1001.6 |
| 20260507014041 | 49 | 91 | 0.0 | 0.9 | 0.05 | 0.85 | 0.85 | 100 | 1001.6 |
| 20260507013540 | 49 | 334 | 0.0 | 1.7 | 0.04 | 0.84 | 0.84 | 100 | 1001.8 |
| 20260507013051 | 50 | 19 | 0.0 | 2.6 | 0.05 | 0.84 | 0.84 | 100 | 1001.8 |
| 20260507012540 | 50 | 0 | 0.0 | 3.5 | 0.04 | 0.83 | 0.83 | 100 | 1001.8 |
| 20260507012040 | 50 | 17 | 0.0 | 3.5 | 0.05 | 0.83 | 0.83 | 100 | 1001.9 |
| 20260507011551 | 50 | 20 | 0.0 | 1.7 | 0.06 | 0.83 | 0.83 | 100 | 1001.8 |
| 20260507011042 | 51 | 0 | 0.0 | 3.5 | 0.06 | 0.82 | 0.82 | 100 | 1001.9 |
| 20260507010540 | 51 | 0 | 0.0 | 4.3 | 0.06 | 0.82 | 0.82 | 100 | 1001.9 |
| 20260507005540 | 52 | 19 | 1.7 | 3.5 | 0.13 | 0.82 | 0.82 | 100 | 1001.6 |
| 20260507005039 | 52 | 0 | 0.9 | 3.5 | 0.13 | 0.81 | 0.81 | 100 | 1001.6 |
| 20260507004605 | 53 | 42 | 0.0 | 6.1 | 0.13 | 0.81 | 0.81 | 100 | 1001.8 |
| 20260507004041 | 53 | 330 | 0.9 | 6.1 | 0.12 | 0.80 | 0.80 | 100 | 1001.7 |
| 20260507003541 | 53 | 335 | 3.5 | 6.1 | 0.13 | 0.80 | 0.80 | 100 | 1001.7 |
| 20260507003055 | 53 | 323 | 2.6 | 5.2 | 0.12 | 0.79 | 0.79 | 100 | 1001.6 |
| 20260507002540 | 53 | 347 | 0.9 | 3.5 | 0.12 | 0.79 | 0.79 | 100 | 1001.6 |
| 20260507002040 | 53 | 0 | 0.0 | 5.2 | 0.13 | 0.78 | 0.78 | 100 | 1001.7 |
| 20260507001552 | 53 | 0 | 0.9 | 5.2 | 0.12 | 0.77 | 0.77 | 100 | 1001.8 |
| 20260507001040 | 53 | 298 | 2.6 | 5.2 | 0.11 | 0.76 | 0.76 | 100 | 1001.8 |
| 20260507000538 | 53 | 268 | 2.6 | 4.3 | 0.12 | 0.76 | 0.76 | 100 | 1001.7 |
| 20260507000054 | 54 | 257 | 1.7 | 4.3 | 0.08 | 0.71 | 0.71 | 100 | 1001.8 |
| 20260506235542 | 54 | 70 | 0.0 | 0.0 | 0.06 | 0.70 | 0.69 | 100 | 1001.4 |
| 20260506235039 | 54 | 0 | 0.0 | 0.0 | 0.05 | 0.69 | 0.68 | 100 | 1001.4 |
| 20260506234548 | 54 | 0 | 0.0 | 0.0 | 0.06 | 0.69 | 0.68 | 100 | 1001.4 |
| 20260506234042 | 54 | 0 | 0.0 | 0.0 | 0.06 | 0.69 | 0.68 | 100 | 1001.4 |
| 20260506233542 | 54 | 0 | 0.0 | 0.0 | 0.05 | 0.68 | 0.67 | 100 | 1001.4 |
| 20260506233056 | 54 | 0 | 0.0 | 0.9 | 0.07 | 0.68 | 0.67 | 100 | 1001.4 |
| 20260506232538 | 54 | 0 | 0.0 | 0.9 | 0.10 | 0.68 | 0.67 | 100 | 1001.4 |
| 20260506232039 | 54 | 108 | 0.0 | 0.0 | 0.10 | 0.66 | 0.65 | 100 | 1001.5 |
| 20260506231550 | 54 | 0 | 0.0 | 0.0 | 0.10 | 0.66 | 0.65 | 100 | 1001.5 |
| 20260506231039 | 54 | 0 | 0.0 | 0.0 | 0.10 | 0.66 | 0.65 | 100 | 1001.6 |
| 20260506230538 | 54 | 0 | 0.0 | 0.0 | 0.09 | 0.65 | 0.64 | 100 | 1001.6 |
| 20260506230052 | 54 | 0 | 0.0 | 0.0 | 0.08 | 0.64 | 0.63 | 100 | 1001.6 |
| 20260506225543 | 54 | 0 | 0.0 | 0.0 | 0.08 | 0.69 | 0.63 | 100 | 1001.6 |
| 20260506225039 | 54 | 0 | 0.0 | 0.0 | 0.09 | 0.69 | 0.63 | 100 | 1001.6 |
| 20260506224551 | 54 | 0 | 0.0 | 0.9 | 0.08 | 0.68 | 0.62 | 100 | 1001.6 |
| 20260506224039 | 54 | 0 | 0.0 | 1.7 | 0.08 | 0.68 | 0.62 | 100 | 1001.7 |
| 20260506223539 | 54 | 0 | 0.0 | 1.7 | 0.08 | 0.68 | 0.62 | 100 | 1001.8 |
| 20260506223048 | 54 | 0 | 0.0 | 0.9 | 0.06 | 0.66 | 0.60 | 100 | 1001.9 |
| 20260506222539 | 54 | 0 | 0.0 | 1.7 | 0.04 | 0.63 | 0.57 | 100 | 1002.1 |
| 20260506222039 | 54 | 0 | 0.0 | 1.7 | 0.02 | 0.61 | 0.55 | 100 | 1002.1 |
| 20260506221551 | 54 | 91 | 0.0 | 0.9 | 0.02 | 0.61 | 0.55 | 100 | 1002.2 |
| 20260506221038 | 54 | 0 | 0.0 | 0.9 | 0.02 | 0.61 | 0.55 | 100 | 1002.2 |
| 20260506220539 | 54 | 0 | 0.0 | 0.9 | 0.02 | 0.61 | 0.55 | 100 | 1002.3 |
| 20260506220050 | 54 | 0 | 0.0 | 0.9 | 0.03 | 0.61 | 0.55 | 100 | 1002.4 |
| 20260506215538 | 54 | 0 | 0.0 | 0.9 | 0.03 | 0.68 | 0.55 | 100 | 1002.3 |
| 20260506215041 | 54 | 0 | 0.0 | 1.7 | 0.02 | 0.67 | 0.54 | 100 | 1002.4 |
| 20260506214600 | 54 | 109 | 0.0 | 1.7 | 0.03 | 0.67 | 0.54 | 100 | 1002.3 |
| 20260506214039 | 54 | 0 | 0.0 | 0.0 | 0.05 | 0.67 | 0.54 | 100 | 1002.5 |
| 20260506213541 | 54 | 0 | 0.0 | 0.0 | 0.07 | 0.67 | 0.54 | 100 | 1002.5 |
| 20260506213045 | 54 | 0 | 0.0 | 0.0 | 0.10 | 0.67 | 0.54 | 100 | 1002.6 |
| 20260506212538 | 54 | 0 | 0.0 | 0.0 | 0.12 | 0.66 | 0.52 | 100 | 1002.6 |
| 20260506212038 | 54 | 0 | 0.0 | 0.9 | 0.16 | 0.66 | 0.52 | 100 | 1002.6 |
| 20260506211556 | 54 | 0 | 0.0 | 0.9 | 0.19 | 0.66 | 0.52 | 100 | 1002.6 |
| 20260506211038 | 54 | 0 | 0.0 | 0.9 | 0.20 | 0.66 | 0.52 | 100 | 1002.6 |
| 20260506210537 | 53 | 0 | 0.0 | 0.9 | 0.20 | 0.66 | 0.52 | 100 | 1002.7 |
| 20260506210048 | 53 | 0 | 0.0 | 0.9 | 0.20 | 0.65 | 0.52 | 100 | 1002.7 |
| 20260506205538 | 54 | 279 | 0.0 | 0.9 | 0.20 | 0.65 | 0.52 | 100 | 1002.7 |
| 20260506205038 | 53 | 0 | 0.0 | 0.9 | 0.21 | 0.65 | 0.52 | 100 | 1002.5 |
| 20260506204552 | 53 | 0 | 0.0 | 0.9 | 0.20 | 0.64 | 0.51 | 100 | 1002.5 |
| 20260506204038 | 54 | 0 | 0.0 | 0.9 | 0.19 | 0.62 | 0.49 | 100 | 1002.6 |
| 20260506203542 | 53 | 0 | 0.0 | 0.9 | 0.18 | 0.60 | 0.47 | 100 | 1002.5 |
| 20260506203052 | 53 | 0 | 0.0 | 0.0 | 0.15 | 0.57 | 0.44 | 100 | 1002.6 |
| 20260506202539 | 53 | 0 | 0.0 | 0.9 | 0.13 | 0.54 | 0.41 | 100 | 1002.8 |
| 20260506202039 | 53 | 0 | 0.0 | 0.9 | 0.09 | 0.50 | 0.37 | 100 | 1002.8 |
| 20260506201551 | 53 | 0 | 0.0 | 0.9 | 0.07 | 0.47 | 0.34 | 100 | 1002.9 |
| 20260506201038 | 53 | 0 | 0.0 | 0.9 | 0.07 | 0.46 | 0.33 | 100 | 1002.8 |
| 20260506200539 | 53 | 0 | 0.0 | 0.9 | 0.08 | 0.46 | 0.33 | 100 | 1002.7 |
| 20260506200050 | 53 | 0 | 0.0 | 0.9 | 0.09 | 0.45 | 0.32 | 100 | 1002.8 |
| 20260506195538 | 53 | 0 | 0.0 | 1.7 | 0.11 | 0.45 | 0.32 | 100 | 1002.9 |
| 20260506195040 | 53 | 0 | 0.0 | 1.7 | 0.11 | 0.44 | 0.31 | 100 | 1002.9 |
| 20260506194548 | 53 | 0 | 0.0 | 1.7 | 0.13 | 0.44 | 0.31 | 100 | 1003.1 |
| 20260506194041 | 53 | 101 | 0.0 | 1.7 | 0.14 | 0.43 | 0.30 | 100 | 1003.2 |
| 20260506193538 | 53 | 0 | 0.0 | 1.7 | 0.14 | 0.42 | 0.29 | 100 | 1003.3 |
| 20260506193054 | 53 | 0 | 0.0 | 1.7 | 0.15 | 0.42 | 0.29 | 100 | 1003.3 |
| 20260506192538 | 53 | 108 | 0.0 | 1.7 | 0.16 | 0.41 | 0.28 | 100 | 1003.4 |
| 20260506192036 | 53 | 257 | 0.0 | 0.9 | 0.16 | 0.40 | 0.27 | 100 | 1003.4 |
| 20260506191559 | 53 | 0 | 0.0 | 0.9 | 0.17 | 0.40 | 0.27 | 100 | 1003.7 |
| 20260506191039 | 53 | 0 | 0.0 | 1.7 | 0.17 | 0.39 | 0.26 | 100 | 1003.6 |
| 20260506190538 | 53 | 84 | 0.0 | 1.7 | 0.16 | 0.37 | 0.24 | 100 | 1003.7 |
| 20260506190046 | 53 | 0 | 0.0 | 0.9 | 0.14 | 0.35 | 0.22 | 100 | 1003.7 |
| 20260506185538 | 53 | 0 | 0.0 | 0.9 | 0.13 | 0.34 | 0.21 | 100 | 1003.8 |
| 20260506185038 | 53 | 0 | 0.0 | 1.7 | 0.13 | 0.33 | 0.20 | 100 | 1003.8 |
| 20260506184550 | 53 | 0 | 0.0 | 1.7 | 0.11 | 0.31 | 0.18 | 100 | 1003.8 |
| 20260506184038 | 53 | 0 | 0.0 | 0.9 | 0.09 | 0.29 | 0.16 | 100 | 1003.9 |
| 20260506183539 | 53 | 0 | 0.0 | 0.9 | 0.09 | 0.28 | 0.15 | 100 | 1003.9 |
| 20260506183053 | 53 | 86 | 0.0 | 0.9 | 0.08 | 0.27 | 0.14 | 100 | 1003.9 |
| 20260506182538 | 53 | 0 | 0.0 | 0.9 | 0.06 | 0.25 | 0.12 | 100 | 1004.0 |
| 20260506182038 | 53 | 0 | 0.0 | 1.7 | 0.05 | 0.24 | 0.11 | 99 | 1004.1 |
| 20260506181556 | 53 | 95 | 0.0 | 2.6 | 0.04 | 0.23 | 0.10 | 99 | 1004.2 |
| 20260506181038 | 53 | 91 | 0.0 | 2.6 | 0.04 | 0.22 | 0.09 | 99 | 1004.0 |
| 20260506180539 | 53 | 0 | 0.0 | 2.6 | 0.03 | 0.21 | 0.08 | 99 | 1004.1 |
| 20260506180105 | 53 | 79 | 0.9 | 3.5 | 0.03 | 0.21 | 0.08 | 99 | 1004.2 |
| 20260506175538 | 53 | 96 | 0.9 | 3.5 | 0.03 | 0.21 | 0.08 | 99 | 1004.2 |
| 20260506175038 | 53 | 82 | 0.0 | 2.6 | 0.03 | 0.20 | 0.07 | 99 | 1004.2 |
| 20260506174546 | 53 | 0 | 0.0 | 5.2 | 0.03 | 0.20 | 0.07 | 99 | 1004.2 |
| 20260506174038 | 53 | 0 | 0.9 | 5.2 | 0.03 | 0.20 | 0.07 | 99 | 1004.3 |
| 20260506173538 | 53 | 0 | 1.7 | 4.3 | 0.02 | 0.19 | 0.06 | 99 | 1004.4 |
| 20260506173118 | 53 | 0 | 0.0 | 2.6 | 0.02 | 0.19 | 0.06 | 99 | 1004.4 |
| 20260506172538 | 53 | 0 | 0.0 | 3.5 | 0.02 | 0.19 | 0.06 | 99 | 1004.6 |
| 20260506172038 | 53 | 125 | 0.9 | 3.5 | 0.02 | 0.19 | 0.06 | 99 | 1004.6 |
| 20260506171550 | 53 | 0 | 1.7 | 3.5 | 0.02 | 0.19 | 0.06 | 98 | 1004.5 |
| 20260506171036 | 53 | 96 | 0.0 | 3.5 | 0.02 | 0.18 | 0.05 | 99 | 1004.3 |
| 20260506170539 | 53 | 67 | 0.0 | 1.7 | 0.02 | 0.18 | 0.05 | 99 | 1004.3 |
| 20260506170050 | 53 | 0 | 0.0 | 1.7 | 0.02 | 0.18 | 0.05 | 98 | 1004.9 |
| 20260506165538 | 53 | 0 | 0.0 | 1.7 | 0.03 | 0.18 | 0.05 | 98 | 1004.9 |
| 20260506165039 | 53 | 0 | 0.0 | 2.6 | 0.02 | 0.17 | 0.04 | 99 | 1004.9 |
| 20260506164547 | 53 | 343 | 0.9 | 2.6 | 0.02 | 0.17 | 0.04 | 99 | 1004.9 |
| 20260506164040 | 53 | 0 | 0.0 | 2.6 | 0.02 | 0.17 | 0.04 | 98 | 1005.5 |
| 20260506163538 | 53 | 95 | 0.0 | 4.3 | 0.02 | 0.17 | 0.04 | 98 | 1005.5 |
| 20260506163100 | 53 | 0 | 0.9 | 4.3 | 0.03 | 0.17 | 0.04 | 98 | 1005.7 |
| 20260506162538 | 53 | 0 | 0.0 | 3.5 | 0.03 | 0.17 | 0.04 | 98 | 1005.7 |
| 20260506162041 | 53 | 107 | 0.9 | 3.5 | 0.03 | 0.17 | 0.04 | 98 | 1005.7 |
| 20260506161555 | 53 | 108 | 0.0 | 0.0 | 0.03 | 0.17 | 0.04 | 97 | 1005.8 |
| 20260506161039 | 53 | 0 | 0.0 | 0.0 | 0.02 | 0.16 | 0.03 | 97 | 1005.8 |
| 20260506160539 | 53 | 0 | 0.0 | 0.0 | 0.02 | 0.16 | 0.03 | 96 | 1005.8 |
| 20260506160051 | 53 | 0 | 0.0 | 0.0 | 0.02 | 0.16 | 0.03 | 96 | 1005.9 |
| 20260506155541 | 53 | 0 | 0.0 | 0.9 | 0.01 | 0.15 | 0.02 | 96 | 1006.0 |
| 20260506155038 | 53 | 0 | 0.0 | 0.9 | 0.01 | 0.15 | 0.02 | 95 | 1006.0 |
| 20260506154552 | 53 | 0 | 0.0 | 0.9 | 0.01 | 0.15 | 0.02 | 95 | 1005.9 |
| 20260506154039 | 53 | 334 | 0.0 | 0.0 | 0.01 | 0.15 | 0.02 | 95 | 1006.0 |
| 20260506153539 | 53 | 0 | 0.0 | 0.0 | 0.01 | 0.15 | 0.02 | 95 | 1006.2 |
| 20260506153049 | 54 | 0 | 0.0 | 0.9 | 0.00 | 0.14 | 0.01 | 95 | 1006.0 |
| 20260506152538 | 53 | 0 | 0.0 | 1.7 | 0.00 | 0.14 | 0.01 | 94 | 1005.9 |
| 20260506152041 | 53 | 0 | 0.0 | 1.7 | 0.00 | 0.14 | 0.01 | 94 | 1005.9 |
| 20260506151551 | 53 | 0 | 0.0 | 1.7 | 0.00 | 0.14 | 0.01 | 94 | 1005.7 |
| 20260506151038 | 53 | 330 | 0.0 | 2.6 | 0.00 | 0.14 | 0.01 | 94 | 1005.9 |
| 20260506150538 | 53 | 27 | 0.0 | 2.6 | 0.00 | 0.14 | 0.01 | 95 | 1005.8 |
| 20260506150056 | 53 | 321 | 0.9 | 3.5 | 0.00 | 0.14 | 0.01 | 95 | 1005.8 |
| 20260506145539 | 53 | 0 | 0.9 | 3.5 | 0.00 | 0.14 | 0.01 | 95 | 1005.8 |
| 20260506145038 | 53 | 300 | 0.9 | 3.5 | 0.00 | 0.14 | 0.01 | 95 | 1005.8 |
| 20260506144602 | 53 | 340 | 1.7 | 3.5 | 0.00 | 0.14 | 0.01 | 95 | 1005.8 |
| 20260506144038 | 52 | 327 | 0.9 | 3.5 | 0.00 | 0.14 | 0.01 | 96 | 1005.9 |
| 20260506143539 | 52 | 284 | 0.9 | 3.5 | 0.00 | 0.14 | 0.01 | 96 | 1005.9 |
| 20260506143053 | 52 | 304 | 0.9 | 3.5 | 0.00 | 0.14 | 0.01 | 96 | 1006.0 |
| 20260506142539 | 52 | 264 | 0.9 | 2.6 | 0.00 | 0.14 | 0.01 | 96 | 1006.1 |
| 20260506142038 | 52 | 322 | 0.9 | 2.6 | 0.00 | 0.14 | 0.01 | 96 | 1006.2 |
| 20260506141548 | 52 | 264 | 0.9 | 3.5 | 0.00 | 0.14 | 0.01 | 96 | 1006.2 |
| 20260506141039 | 52 | 296 | 1.7 | 3.5 | 0.00 | 0.14 | 0.01 | 96 | 1006.2 |
| 20260506140538 | 52 | 267 | 0.9 | 2.6 | 0.00 | 0.14 | 0.01 | 96 | 1006.2 |
| 20260506140110 | 52 | 0 | 0.9 | 3.5 | 0.00 | 0.14 | 0.01 | 96 | 1006.4 |
| 20260506135538 | 52 | 334 | 0.9 | 3.5 | 0.00 | 0.14 | 0.01 | 96 | 1006.3 |
| 20260506135039 | 52 | 290 | 1.7 | 3.5 | 0.00 | 0.14 | 0.01 | 96 | 1006.3 |
| 20260506134554 | 52 | 326 | 0.9 | 2.6 | 0.00 | 0.14 | 0.01 | 95 | 1006.4 |
| 20260506134038 | 52 | 0 | 0.0 | 2.6 | 0.00 | 0.14 | 0.01 | 96 | 1006.3 |
| 20260506133538 | 52 | 295 | 0.0 | 2.6 | 0.00 | 0.14 | 0.01 | 95 | 1006.4 |
| 20260506133058 | 52 | 0 | 0.0 | 1.7 | 0.00 | 0.14 | 0.01 | 95 | 1006.4 |
| 20260506132539 | 52 | 283 | 0.0 | 1.7 | 0.00 | 0.14 | 0.01 | 95 | 1006.5 |
| 20260506132039 | 52 | 0 | 0.0 | 1.7 | 0.00 | 0.14 | 0.01 | 94 | 1006.6 |
| 20260506131557 | 52 | 0 | 0.0 | 0.9 | 0.00 | 0.14 | 0.01 | 94 | 1006.7 |
| 20260506131038 | 52 | 0 | 0.0 | 0.9 | 0.00 | 0.14 | 0.01 | 95 | 1006.8 |
| 20260506130539 | 52 | 35 | 0.0 | 0.0 | 0.00 | 0.14 | 0.01 | 94 | 1006.8 |
| 20260506130057 | 52 | 0 | 0.0 | 0.9 | 0.00 | 0.14 | 0.01 | 94 | 1007.0 |
| 20260506125538 | 52 | 0 | 0.0 | 0.9 | 0.00 | 0.14 | 0.01 | 94 | 1007.1 |
| 20260506125041 | 52 | 0 | 0.0 | 0.9 | 0.00 | 0.14 | 0.01 | 93 | 1007.1 |
| 20260506124546 | 52 | 0 | 0.0 | 2.6 | 0.00 | 0.14 | 0.01 | 93 | 1007.0 |
| 20260506124041 | 52 | 0 | 0.0 | 2.6 | 0.00 | 0.14 | 0.01 | 93 | 1006.9 |
| 20260506123538 | 52 | 0 | 0.0 | 1.7 | 0.00 | 0.14 | 0.01 | 94 | 1006.8 |
| 20260506123051 | 52 | 0 | 0.0 | 1.7 | 0.00 | 0.14 | 0.01 | 94 | 1007.2 |
| 20260506122538 | 52 | 359 | 0.0 | 1.7 | 0.00 | 0.14 | 0.01 | 95 | 1006.9 |
| 20260506122039 | 52 | 41 | 0.0 | 0.9 | 0.00 | 0.14 | 0.01 | 96 | 1007.0 |
| 20260506121557 | 52 | 0 | 0.0 | 0.9 | 0.00 | 0.14 | 0.01 | 96 | 1006.9 |
| 20260506121039 | 52 | 92 | 0.0 | 0.9 | 0.00 | 0.14 | 0.01 | 96 | 1007.1 |
| 20260506120538 | 52 | 0 | 0.0 | 4.3 | 0.00 | 0.14 | 0.01 | 96 | 1007.1 |
| 20260506120050 | 52 | 0 | 0.0 | 4.3 | 0.00 | 0.14 | 0.01 | 96 | 1007.1 |
| 20260506115541 | 52 | 70 | 0.9 | 4.3 | 0.00 | 0.14 | 0.01 | 96 | 1007.0 |
| 20260506115039 | 52 | 84 | 0.9 | 4.3 | 0.00 | 0.14 | 0.01 | 96 | 1006.9 |
| 20260506114550 | 52 | 0 | 0.0 | 3.5 | 0.00 | 0.14 | 0.01 | 96 | 1007.0 |
| 20260506114038 | 52 | 93 | 0.9 | 3.5 | 0.00 | 0.14 | 0.01 | 96 | 1007.0 |
| 20260506113538 | 52 | 108 | 0.9 | 3.5 | 0.00 | 0.14 | 0.01 | 96 | 1006.8 |
| 20260506113052 | 52 | 105 | 0.9 | 2.6 | 0.00 | 0.14 | 0.01 | 95 | 1006.8 |
| 20260506112538 | 52 | 91 | 0.0 | 1.7 | 0.00 | 0.14 | 0.01 | 95 | 1006.9 |
| 20260506112043 | 52 | 0 | 0.0 | 1.7 | 0.00 | 0.14 | 0.01 | 94 | 1007.0 |
| 20260506111552 | 52 | 0 | 0.0 | 2.6 | 0.00 | 0.14 | 0.01 | 94 | 1007.1 |
| 20260506111038 | 52 | 0 | 0.0 | 2.6 | 0.00 | 0.14 | 0.01 | 94 | 1006.9 |
| 20260506110538 | 52 | 0 | 0.0 | 1.7 | 0.00 | 0.14 | 0.01 | 94 | 1006.8 |
| 20260506110051 | 52 | 0 | 0.0 | 1.7 | 0.00 | 0.14 | 0.01 | 93 | 1006.8 |
| 20260506105538 | 52 | 0 | 0.9 | 1.7 | 0.00 | 0.14 | 0.01 | 93 | 1006.8 |
| 20260506105041 | 52 | 0 | 0.0 | 0.0 | 0.00 | 0.14 | 0.01 | 92 | 1006.7 |
| 20260506104555 | 52 | 0 | 0.0 | 0.0 | 0.00 | 0.14 | 0.01 | 90 | 1006.8 |
| 20260506104038 | 52 | 0 | 0.0 | 0.9 | 0.00 | 0.14 | 0.01 | 91 | 1006.9 |
| 20260506103538 | 52 | 0 | 0.0 | 0.9 | 0.00 | 0.14 | 0.01 | 91 | 1006.8 |
| 20260506103049 | 52 | 0 | 0.0 | 0.0 | 0.00 | 0.14 | 0.01 | 92 | 1006.8 |
| 20260506102542 | 52 | 0 | 0.0 | 0.9 | 0.00 | 0.14 | 0.01 | 92 | 1006.9 |
| 20260506102038 | 52 | 0 | 0.0 | 0.9 | 0.00 | 0.14 | 0.01 | 92 | 1006.8 |
| 20260506101546 | 51 | 0 | 0.0 | 0.9 | 0.00 | 0.14 | 0.01 | 92 | 1007.1 |
| 20260506101040 | 52 | 0 | 0.0 | 0.9 | 0.00 | 0.14 | 0.01 | 92 | 1006.9 |
| 20260506100538 | 51 | 0 | 0.0 | 0.9 | 0.00 | 0.14 | 0.01 | 92 | 1006.9 |
| 20260506100045 | 51 | 252 | 0.0 | 0.9 | 0.00 | 0.14 | 0.01 | 93 | 1006.6 |
| 20260506095539 | 51 | 0 | 0.0 | 0.9 | 0.00 | 0.14 | 0.01 | 94 | 1006.4 |
| 20260506095040 | 51 | 0 | 0.0 | 1.7 | 0.00 | 0.14 | 0.01 | 93 | 1006.5 |
| 20260506094605 | 51 | 0 | 0.0 | 2.6 | 0.00 | 0.14 | 0.01 | 93 | 1006.7 |
| 20260506094038 | 51 | 256 | 0.9 | 3.5 | 0.00 | 0.14 | 0.01 | 93 | 1006.8 |
| 20260506093539 | 51 | 270 | 0.9 | 3.5 | 0.00 | 0.14 | 0.01 | 93 | 1006.9 |
| 20260506093046 | 51 | 224 | 0.9 | 3.5 | 0.00 | 0.14 | 0.01 | 92 | 1007.1 |
| 20260506092539 | 52 | 220 | 1.7 | 3.5 | 0.00 | 0.14 | 0.01 | 91 | 1006.9 |
| 20260506092039 | 51 | 229 | 0.9 | 2.6 | 0.00 | 0.14 | 0.01 | 92 | 1006.7 |
| 20260506091546 | 51 | 248 | 0.0 | 2.6 | 0.00 | 0.14 | 0.01 | 94 | 1006.3 |
| 20260506091039 | 51 | 0 | 0.0 | 1.7 | 0.00 | 0.14 | 0.01 | 94 | 1006.1 |
| 20260506090538 | 51 | 0 | 0.0 | 1.7 | 0.00 | 0.14 | 0.01 | 94 | 1006.2 |
| 20260506090047 | 51 | 0 | 0.0 | 1.7 | 0.00 | 0.14 | 0.01 | 94 | 1006.4 |
| 20260506085538 | 51 | 0 | 0.0 | 1.7 | 0.00 | 0.14 | 0.01 | 93 | 1006.6 |
| 20260506085041 | 51 | 96 | 0.0 | 1.7 | 0.00 | 0.14 | 0.01 | 93 | 1006.5 |
| 20260506084551 | 51 | 76 | 0.0 | 0.9 | 0.00 | 0.14 | 0.01 | 93 | 1006.4 |
| 20260506084038 | 51 | 0 | 0.0 | 1.7 | 0.00 | 0.14 | 0.01 | 94 | 1006.3 |
| 20260506083538 | 52 | 0 | 0.0 | 1.7 | 0.00 | 0.14 | 0.01 | 94 | 1006.3 |
| 20260506083056 | 52 | 0 | 0.0 | 1.7 | 0.00 | 0.14 | 0.01 | 94 | 1006.5 |
| 20260506082538 | 52 | 76 | 0.0 | 1.7 | 0.00 | 0.14 | 0.01 | 94 | 1006.6 |
| 20260506082040 | 52 | 0 | 0.0 | 2.6 | 0.00 | 0.14 | 0.01 | 93 | 1006.6 |
| 20260506081547 | 52 | 96 | 0.0 | 2.6 | 0.00 | 0.14 | 0.01 | 92 | 1006.6 |
| 20260506081038 | 53 | 89 | 0.0 | 1.7 | 0.00 | 0.14 | 0.01 | 91 | 1006.9 |
| 20260506080542 | 53 | 0 | 0.0 | 0.9 | 0.00 | 0.14 | 0.01 | 89 | 1006.9 |
| 20260506080105 | 53 | 0 | 0.0 | 0.9 | 0.00 | 0.14 | 0.01 | 89 | 1006.8 |
| 20260506073102 | 54 | 253 | 0.0 | 4.3 | 0.00 | 0.14 | 0.01 | 87 | 1006.3 |
| 20260506072543 | 54 | 273 | 2.6 | 7.0 | 0.00 | 0.14 | 0.01 | 87 | 1006.3 |
| 20260506072041 | 54 | 237 | 1.7 | 7.8 | 0.00 | 0.14 | 0.01 | 87 | 1006.2 |